Location: NJAA Observatory
(40.6819°N, 74.8979°W)
Time: 09:12:57
(UTC-04:00)

Iridium 84 - Visible Passes

Search period start: 27 March 2015 00:00
Search period end: 06 April 2015 00:00
Orbit: 776 x 779 km, 86.4° (Epoch: 26 March)

Date Brightness Start Highest point End Pass type
(mag) Time Alt. Az. Time Alt. Az. Time Alt. Az.
27 Mar 7.0 21:30:40 10° NNE 21:33:05 23° NE 21:33:05 23° NE visible
27 Mar 7.8 23:11:27 10° NNW 23:13:34 21° NW 23:13:34 21° NW visible
28 Mar 7.3 20:58:04 10° NE 20:59:59 16° NE 20:59:59 16° NE visible
28 Mar 7.0 22:37:28 10° NNW 22:40:28 33° NNW 22:40:28 33° NNW visible
29 Mar 6.3 22:03:50 10° N 22:07:24 44° N 22:07:24 44° N visible
29 Mar 8.4 23:47:46 10° WNW 23:47:54 10° WNW 23:47:54 10° WNW visible
30 Mar 6.2 21:30:30 10° N 21:34:21 39° NE 21:34:21 39° NE visible
30 Mar 7.8 23:12:05 10° NW 23:14:51 19° WNW 23:14:51 19° WNW visible
31 Mar 6.7 20:57:31 10° NNE 21:01:19 24° ENE 21:01:19 24° ENE visible
31 Mar 6.9 22:37:48 10° NNW 22:41:49 35° WNW 22:41:49 35° WNW visible
01 Apr 7.2 20:25:21 10° NE 20:27:47 14° ENE 20:28:18 14° ENE visible
01 Apr 5.8 22:03:59 10° N 22:08:49 66° WNW 22:08:49 66° WNW visible
02 Apr 5.4 21:30:28 10° N 21:35:39 65° E 21:35:50 65° E visible
02 Apr 8.1 23:13:06 10° NW 23:15:52 14° W 23:16:20 14° W visible
03 Apr 6.1 20:57:15 10° NNE 21:01:59 35° E 21:02:54 33° ESE visible
03 Apr 7.3 22:38:18 10° NNW 22:42:36 26° W 22:43:24 25° W visible
04 Apr 6.9 20:24:30 10° NNE 20:28:10 20° ENE 20:29:59 17° E visible
04 Apr 6.4 22:04:15 10° NNW 22:09:14 47° W 22:10:29 39° SW visible
05 Apr 7.4 19:53:25 10° ENE 19:54:10 10° ENE 19:55:16 10° E visible
05 Apr 5.4 21:30:32 10° N 21:35:48 87° W 21:37:37 42° S visible
